TimeAKST,TemperatureF,Dew PointF,Humidity,Sea Level PressureIn,VisibilityMPH,Wind Direction,Wind SpeedMPH,Gust SpeedMPH,PrecipitationIn,Events,Conditions,WindDirDegrees,DateUTC
12:36 AM,24.8,23.0,93,30.10,10.0,NNE,4.6,-,N/A,,Partly Cloudy,30,2013-03-03 09:36:00
12:53 AM,25.0,21.9,88,30.10,10.0,NE,6.9,-,N/A,,Partly Cloudy,40,2013-03-03 09:53:00
1:53 AM,23.0,19.9,88,30.12,10.0,North,4.6,-,N/A,,Clear,360,2013-03-03 10:53:00
3:53 AM,21.0,16.0,81,30.15,10.0,NW,3.5,-,N/A,,Clear,310,2013-03-03 12:53:00
4:53 AM,17.1,14.0,88,30.17,10.0,NNE,3.5,-,N/A,,Clear,20,2013-03-03 13:53:00
5:53 AM,18.0,15.1,88,30.18,10.0,Calm,Calm,-,N/A,,Clear,0,2013-03-03 14:53:00
6:53 AM,17.1,12.9,84,30.19,10.0,Calm,Calm,-,N/A,,Clear,0,2013-03-03 15:53:00
7:53 AM,17.1,12.9,84,30.21,10.0,Calm,Calm,-,N/A,,Clear,0,2013-03-03 16:53:00
8:53 AM,19.0,12.9,77,30.23,10.0,Calm,Calm,-,N/A,,Clear,0,2013-03-03 17:53:00
9:53 AM,19.9,15.1,81,30.25,10.0,North,4.6,-,N/A,,Clear,350,2013-03-03 18:53:00
10:53 AM,21.0,16.0,81,30.29,10.0,North,3.5,-,N/A,,Clear,350,2013-03-03 19:53:00
11:53 AM,23.0,17.1,78,30.30,10.0,Calm,Calm,-,N/A,,Clear,0,2013-03-03 20:53:00
12:53 PM,26.1,17.1,69,30.30,10.0,NE,8.1,-,N/A,,Clear,40,2013-03-03 21:53:00
1:53 PM,28.9,16.0,58,30.30,10.0,NE,6.9,-,N/A,,Clear,50,2013-03-03 22:53:00
2:53 PM,30.0,15.1,54,30.32,10.0,NNE,3.5,-,N/A,,Clear,20,2013-03-03 23:53:00
3:53 PM,28.0,17.1,63,30.33,10.0,NNE,5.8,-,N/A,,Clear,20,2013-03-04 00:53:00
4:53 PM,28.9,17.1,61,30.35,10.0,Calm,Calm,-,N/A,,Clear,0,2013-03-04 01:53:00
5:53 PM,28.0,17.1,63,30.36,10.0,Calm,Calm,-,N/A,,Scattered Clouds,0,2013-03-04 02:53:00
6:53 PM,28.0,17.1,63,30.38,10.0,Calm,Calm,-,N/A,,Overcast,0,2013-03-04 03:53:00
7:53 PM,25.0,16.0,69,30.40,10.0,Calm,Calm,-,N/A,,Overcast,0,2013-03-04 04:53:00
8:53 PM,26.1,16.0,66,30.42,10.0,Calm,Calm,-,N/A,,Clear,0,2013-03-04 05:53:00
9:53 PM,23.0,16.0,74,30.43,10.0,NE,3.5,-,N/A,,Mostly Cloudy,50,2013-03-04 06:53:00
10:53 PM,21.9,16.0,78,30.44,10.0,NNE,4.6,-,N/A,,Overcast,20,2013-03-04 07:53:00
11:53 PM,27.0,19.0,72,30.45,10.0,Calm,Calm,-,N/A,,Overcast,0,2013-03-04 08:53:00